カタログに戻る

STARLINK-35302

運用中通信VLEO
NORAD 65845·PAYLOAD·🇺🇸 United States

打ち上げ Sep 29, 2025 から Vandenberg Space Force Base

Loading…

次のパス (今後24時間)

TLE

最新Source: CelesTrak SupGP

元期: Sep 15, 2026, 03:32 UTC

1 65845C 25221Y   26258.14770833 -.00007052  00000+0 -20829-3 0  2583
2 65845  53.1586 284.4360 0001294  92.0014 321.9408 15.34402041    19

AllMySatでSTARLINK-35302をリアルタイム追跡

Download on the App Store